#timestamp,LO_Frequency,Hit,StdDev 
1654232415.7,286047000.4,N
1654232435.6,286047001.1,N
1654232455.4,286046998.2,N
1654232475.2,286047000.5,N
1654232495.1,286047000.9,N
1654232496.0,286047000.9,N
1654232515.8,286046998.6,N
1654232535.6,286046999.5,N
1654232555.5,286046999.1,N
1654232575.3,286046998.1,N
1654232595.2,286046998.4,N
1654232615.0,286046999.4,N
1654232615.9,286046999.4,N
1654232635.7,286046998.2,N
1654232655.6,286046998.1,N
1654232675.4,286047000.7,N
1654232695.3,286047001.0,N
1654232715.1,286046998.1,N
1654232716.0,286046998.1,N
1654232735.8,286046998.1,N
1654232755.7,286046998.3,N
1654232775.5,286046998.6,N
1654232795.3,286047001.1,N
1654232815.2,286046999.9,N
1654232835.0,286047000.5,N
1654232835.9,286047000.5,N
1654232855.8,286047002.4,N
1654232875.6,286047002.0,N
1654232895.4,286047001.4,N
1654232915.3,286047001.8,N
1654232935.1,286047002.6,N
1654232955.8,286047002.3,N
1654232975.7,286046999.8,N
1654232995.5,286047001.5,N
1654233015.4,286047002.3,N
1654233035.2,286046999.7,N
1654233055.0,286047000.8,N
1654233055.9,286047000.8,N
1654233075.8,286047001.1,N
1654233095.6,286046999.7,N
1654233115.5,286047001.0,N
1654233135.3,286047001.0,N
1654233155.1,286047001.1,N
1654233175.9,286046998.9,N
1654233195.7,286046997.0,N
1654233215.6,286046996.7,N
1654233235.4,286046999.3,N
1654233255.2,286046999.2,N
1654233275.1,286046999.3,N
1654233276.0,286046999.3,N
1654233295.8,286046997.3,N
1654233315.6,286046996.2,N
1654233335.5,286046995.7,N
1654233355.3,286046996.5,N
1654233375.2,286046998.9,N
1654233395.9,286046999.2,N
1654233415.7,286046995.3,N
1654233435.6,286046995.5,N
1654233455.4,286046995.4,N
1654233475.2,286046997.4,N
1654233495.1,286046996.8,N
1654233496.0,286046996.8,N
1654233515.8,286046997.8,N
1654233535.7,286046994.9,N
1654233555.5,286046997.8,N
1654233575.3,286046997.2,N
1654233595.2,286046998.0,N
1654233615.0,286046997.2,N
1654233615.9,286046997.2,N
1654233635.8,286046998.0,N
1654233655.6,286046997.6,N
1654233675.4,286046995.4,N
1654233695.3,286046994.9,Y
1654233715.1,286046999.2,P
1654233735.9,286046998.7,N
1654233755.7,286046999.4,N
1654233775.5,286047000.9,N
1654233795.4,286047000.8,N
1654233815.2,286047002.7,N
1654233835.0,286047000.1,N
1654233835.9,286047000.1,N
1654233855.8,286047000.0,N
1654233875.6,286047000.4,N
1654233895.5,286047001.0,N
1654233915.3,286046998.4,N
1654233935.1,286046998.1,N
1654233955.9,286047000.9,N
1654233975.7,286047000.5,N
1654233995.5,286046998.8,N
1654234015.4,286046999.1,N
1654234035.2,286046998.8,N
1654234055.1,286046999.0,N
1654234056.0,286046999.0,N
1654234075.8,286046998.6,N
1654234095.6,286047000.7,N
1654234115.5,286046999.3,N
1654234135.3,286046998.9,N
1654234155.2,286046996.6,N
1654234175.9,286046999.2,N
1654234195.7,286046997.8,N
1654234215.6,286046997.8,N
1654234235.4,286046997.0,N
1654234255.3,286046996.8,N
1654234275.1,286046996.9,N
1654234276.0,286046996.9,N
1654234295.8,286046996.6,N
1654234315.7,286046996.9,N
1654234335.5,286046997.1,N
1654234355.3,286046997.4,N
1654234375.2,286046998.7,N
1654234395.0,286046999.3,N
1654234396.0,286046999.3,N
1654234415.8,286046998.4,N
1654234435.6,286046999.3,N
1654234455.5,286047000.8,N
1654234475.3,286046998.4,N
1654234495.2,286046998.7,N
1654234515.9,286046998.3,N
1654234535.7,286046999.0,N
1654234555.6,286046998.6,N
1654234575.4,286046999.6,N
1654234595.3,286046994.9,Y
1654234615.1,286046999.1,P
1654234635.8,286046999.4,N
1654234655.7,286046999.6,N
1654234675.5,286046997.3,Y
1654234695.4,286046999.4,P
1654234715.2,286046996.5,P
1654234735.0,286046999.5,N
1654234735.9,286046999.5,N
1654234755.8,286046998.9,N
1654234775.6,286046996.8,Y
1654234795.5,286046998.8,P
1654234815.3,286047000.3,P
1654234835.1,286047000.8,N
1654234855.9,286047000.6,N
1654234875.7,286047000.0,N
1654234895.5,286046998.4,N
1654234915.4,286046998.5,N
1654234935.2,286047000.9,N
1654234955.1,286047001.1,N
1654234956.0,286047001.1,N
1654234975.8,286047000.4,N
1654234995.7,286047000.3,N
1654235015.5,286046998.8,N
1654235035.3,286046999.6,N
1654235055.2,286046997.0,Y
1654235075.0,286046997.0,P
1654235075.9,286046997.0,N
1654235095.8,286046999.2,N
1654235115.6,286046998.4,N
1654235135.4,286046998.7,N
1654235155.3,286046998.3,N
1654235175.1,286046998.3,N
1654235195.8,286046998.8,N
1654235215.7,286046996.6,Y
1654235235.5,286046999.0,P
1654235255.4,286046998.7,P
1654235275.2,286046998.5,P
1654235295.0,286046998.6,Y
1654235295.9,286046998.6,P
1654235315.8,286047000.7,P
1654235335.6,286046999.9,N
1654235355.5,286047000.2,N
1654235375.3,286047002.8,Y
1654235395.1,286047004.0,P
1654235415.9,286047003.8,N
1654235435.7,286047003.7,N
1654235455.5,286047001.3,N
1654235475.4,286047001.6,N
1654235495.2,286046999.8,N
1654235515.1,286047002.7,N
1654235516.0,286047002.7,N
1654235535.8,286047002.3,N
1654235555.6,286047002.7,N
1654235575.5,286047000.9,N
1654235595.3,286047000.5,N
1654235615.2,286046999.8,N
1654235635.9,286047002.4,N
1654235655.7,286047002.2,N
1654235675.6,286047002.6,N
1654235695.4,286047002.1,N
1654235715.2,286047002.5,N
1654235735.1,286047001.8,N
1654235736.0,286047001.8,N
1654235755.8,286047002.4,N
1654235775.7,286047000.1,N
1654235795.5,286047000.2,N
1654235815.3,286047000.4,N
1654235835.2,286046999.9,N
1654235855.0,286047002.7,N
1654235855.9,286047002.7,N
1654235875.8,286047001.8,N
1654235895.6,286047002.5,N
1654235915.4,286047004.4,Y
1654235935.3,286047001.1,P
1654235955.1,286047000.8,N
1654235975.8,286046998.1,P
1654235995.7,286047000.9,N
